Location: Bern�tre
(50.1974°N, 2.0915°E)
Time: 22:37:07
(UTC+00:00)

SL-14 R/B - Pass Details

Date: 18 September 2020
Orbit: 519 x 553 km, 82.4° (Epoch: 31 October)

Event Time Altitude Azimuth Distance (km) Brightness Sun altitude
Rises 20:46:14 0° 347° (NNW) 2,674 7.6 -25.8°
Reaches altitude 10° 20:48:24 10° 344° (NNW) 1,784 6.6 -26.0°
Enters shadow 20:51:21 47° 320° (NW) 717 4.2 -26.4°
